Wind_Speed
40 40 40 39 37 35 34 33 31 29 28 26 25 24 21 18 15 15 15 15 15 14 15 17 20 19 15 14 14 12 11 12 10 8 9 7 6 6 5 2 3 7 9 9 8 8 9 9 9 9 10 11 12 13 15 17 19 19 19 18 16 13 9 6 5 6 9 11 10 8 6 5 4 2 2 4 4 4 5 7 10 12 14 13 11
41 40 40 39 36 33 32 31 29 28 26 24 22 22 20 17 16 16 16 15 14 13 14 15 16 15 10 9 9 8 8 9 9 9 10 8 7 7 3 0 4 7 8 7 7 7 8 8 8 9 10 11 11 12 13 16 18 20 20 19 17 14 11 8 7 7 9 12 12 9 7 5 4 3 2 3 3 3 5 7 9 11 12 11 10
41 40 40 38 34 32 31 29 27 26 25 23 22 22 20 18 16 16 15 15 14 13 12 13 13 10 6 6 7 7 8 9 9 10 9 7 7 6 3 3 5 6 6 6 6 6 6 6 7 9 11 11 11 12 13 15 17 19 20 19 18 15 13 11 10 8 9 13 13 10 8 6 5 3 3 3 3 3 4 7 8 10 10 9 8
41 40 39 36 33 31 30 28 26 25 24 22 22 21 20 18 16 14 14 15 14 12 11 12 10 7 6 5 5 5 7 9 9 9 8 5 6 6 5 6 6 5 4 5 5 5 5 5 7 9 11 11 11 12 13 14 16 18 20 19 18 16 14 12 11 7 8 12 13 11 9 7 5 4 3 3 3 3 4 5 7 8 8 7 6
41 40 38 35 32 31 30 27 26 26 25 23 22 21 19 18 16 14 15 15 13 11 10 9 7 6 5 5 2 3 6 7 6 6 6 5 4 4 4 5 4 4 5 4 4 4 3 4 6 9 10 10 10 11 12 13 15 17 19 19 17 16 14 13 10 7 8 11 11 11 9 7 5 4 3 3 3 3 3 4 5 6 6 4 4
40 39 37 34 32 33 31 26 25 26 24 23 22 20 19 16 15 16 17 15 12 9 8 7 6 6 6 3 1 3 4 4 3 4 4 5 3 3 3 4 5 5 6 5 4 4 3 4 6 7 8 8 9 9 10 12 14 16 17 17 16 15 13 12 10 9 10 10 9 9 8 7 5 4 4 3 3 3 3 2 2 3 3 2 4
39 38 36 35 34 35 31 25 24 24 23 23 21 19 18 17 17 17 17 14 11 9 8 8 8 7 5 4 2 3 4 4 4 3 4 4 4 5 6 7 6 6 5 5 5 4 4 5 6 6 7 7 7 7 9 11 13 14 14 14 14 13 12 12 11 11 11 10 8 8 7 7 5 5 4 3 3 2 1 1 1 0 1 4 5
38 36 36 35 35 35 30 24 24 24 23 21 20 20 20 19 19 18 15 12 11 10 10 9 9 8 5 4 4 5 5 5 4 4 5 4 4 6 9 9 8 6 6 8 7 6 6 6 6 6 7 7 7 6 7 8 10 11 12 11 11 11 11 12 11 11 11 9 8 7 7 6 5 5 5 4 3 3 1 1 3 4 4 5 6
36 35 35 35 36 35 29 24 25 24 22 21 22 22 20 19 19 17 13 12 11 11 11 10 10 8 6 5 5 5 4 5 5 5 5 4 4 6 8 8 7 7 8 9 8 7 8 8 7 7 7 8 8 7 7 6 6 6 8 9 10 11 11 11 11 11 10 9 8 7 6 5 5 5 5 5 4 4 3 4 6 6 5 6 5
36 35 35 35 36 35 29 25 25 24 23 23 22 21 19 19 19 15 13 12 12 13 12 11 10 8 6 5 4 3 3 4 5 4 4 4 3 4 6 7 7 8 9 9 9 9 9 10 9 8 8 9 10 9 8 7 6 4 4 5 8 10 11 11 10 10 9 8 7 6 6 6 6 6 6 6 5 6 5 6 7 7 6 5 4
36 35 35 35 36 34 29 25 25 25 24 22 21 20 21 22 19 15 14 14 14 14 13 12 12 10 7 5 4 3 3 4 3 3 3 2 2 3 5 6 7 8 9 8 8 9 10 10 10 9 9 10 11 10 9 9 8 7 5 5 7 9 8 7 8 8 8 7 6 6 5 5 6 6 6 7 7 7 7 7 8 9 8 6 3
36 35 35 35 36 34 30 26 25 26 24 22 22 21 20 20 18 17 16 16 16 15 13 13 14 12 9 6 5 4 4 3 2 2 3 2 1 2 4 6 7 8 8 8 8 9 10 10 10 10 11 11 11 12 12 11 10 9 8 8 10 10 8 5 5 6 6 6 6 5 5 5 6 6 7 7 7 8 9 9 10 10 7 4 2
36 35 35 36 36 35 30 27 27 26 23 23 23 19 15 16 17 16 15 16 17 16 14 14 15 14 10 8 6 5 4 3 2 2 3 3 2 3 5 6 7 7 7 7 8 9 10 10 11 12 13 13 13 13 14 14 13 11 10 11 12 12 10 7 5 4 4 4 4 4 5 4 5 6 6 7 7 8 10 11 11 9 6 4 3
37 35 35 36 37 34 30 27 27 26 24 25 23 18 16 16 15 17 17 16 18 18 16 16 16 15 11 9 8 6 5 5 3 2 2 2 2 3 5 6 6 6 6 6 7 8 9 11 12 13 14 14 14 15 15 15 15 13 12 12 13 12 11 9 7 5 5 4 3 3 4 4 4 5 5 6 8 9 12 12 10 8 6 4 2
37 35 35 36 36 33 29 28 28 26 25 25 22 19 19 17 15 17 18 17 20 21 18 16 16 15 12 10 9 7 6 6 5 2 2 2 2 4 6 7 6 6 6 6 7 8 9 11 12 14 15 15 15 16 16 16 16 14 13 14 13 12 11 8 7 6 5 5 4 4 4 4 4 5 5 6 8 10 12 11 9 7 5 3 1
37 37 36 36 35 32 29 29 29 27 25 25 23 21 21 20 18 19 18 18 21 23 20 18 15 13 12 11 10 9 7 8 7 4 3 2 2 4 6 7 7 7 7 7 8 9 10 12 13 14 15 15 15 16 17 17 16 14 14 15 14 12 11 10 9 8 7 6 6 5 4 5 5 5 5 7 9 11 12 10 7 6 4 2 1
38 37 35 35 33 30 28 29 29 27 26 25 25 24 22 21 20 20 20 21 24 25 22 18 14 12 11 11 10 9 9 10 9 6 4 4 3 4 6 8 8 8 8 8 9 10 11 13 13 14 15 15 15 17 18 18 17 15 15 16 14 13 13 11 10 10 9 8 6 5 4 4 4 5 5 7 9 10 10 8 6 3 1 1 2
37 36 35 34 31 27 27 28 28 28 28 28 26 24 21 20 21 20 19 21 24 24 20 16 14 12 11 11 11 10 10 12 10 8 6 5 4 4 6 8 9 9 9 10 10 11 13 14 14 15 16 16 16 18 19 19 17 16 16 16 15 14 13 12 11 11 10 8 7 5 4 4 4 3 5 7 9 10 9 7 4 2 1 2 2
35 35 35 33 30 27 27 28 26 26 28 28 28 25 20 18 21 21 20 18 20 21 20 17 15 13 11 11 12 12 13 13 11 9 8 6 5 5 6 8 9 9 10 10 11 12 13 15 15 16 16 17 17 18 19 19 18 17 17 16 15 14 13 12 12 11 10 9 7 6 5 5 4 3 4 8 10 10 9 6 4 2 1 2 2
34 33 32 30 29 29 29 28 27 27 27 28 29 25 18 16 19 22 20 16 17 21 21 18 15 15 14 12 12 14 15 15 13 11 9 7 6 6 6 7 9 10 11 11 12 12 13 15 16 16 16 17 18 19 20 19 18 17 17 15 13 13 13 13 12 12 11 9 8 7 7 6 4 3 3 8 11 10 8 6 4 2 1 2 3
31 30 30 29 29 30 30 28 27 25 25 27 28 23 18 18 21 20 17 17 17 21 23 20 17 17 16 14 14 15 16 16 15 13 11 10 9 8 6 6 8 10 12 14 14 13 15 16 16 17 17 18 18 19 19 19 18 17 15 13 12 12 13 13 13 13 12 10 9 9 9 7 6 4 3 7 11 11 9 7 5 3 1 2 4
29 29 28 27 27 28 29 27 24 22 24 26 23 19 19 21 19 15 14 15 17 21 24 24 21 19 17 16 16 18 19 19 18 15 13 12 11 10 9 8 9 10 13 15 15 15 17 17 17 17 17 17 18 19 19 19 18 17 15 14 13 14 14 14 14 14 13 11 10 10 10 9 8 5 4 6 10 11 9 7 6 4 3 3 6
29 26 23 24 26 26 25 24 22 21 24 24 19 16 19 20 17 14 13 13 17 21 23 24 24 23 21 18 17 19 20 20 19 17 16 14 13 11 10 11 12 12 13 14 14 14 16 17 16 17 17 17 18 19 19 19 19 18 17 16 16 17 16 16 16 15 14 12 12 11 10 10 9 7 4 5 9 11 10 9 8 7 6 5 6
28 25 23 25 28 26 24 23 23 23 24 21 15 15 19 20 19 16 12 12 16 22 23 24 25 24 22 20 19 20 21 21 20 19 17 16 14 13 12 11 13 13 12 11 11 11 14 16 17 17 17 18 19 19 20 19 19 18 18 18 18 18 18 18 17 17 16 15 14 13 11 10 9 7 5 5 7 8 9 9 9 9 8 6 6
28 27 26 26 27 26 24 23 24 26 24 17 12 15 20 21 18 14 11 12 17 20 22 23 24 23 22 22 22 22 22 21 21 20 18 17 15 15 13 12 12 13 11 10 10 10 12 15 17 17 18 19 19 20 19 19 18 18 18 18 19 20 19 19 18 18 18 17 15 14 13 11 9 7 6 6 6 6 6 7 8 8 7 7 7
27 27 28 28 27 26 24 23 24 24 19 14 15 19 20 19 15 13 14 15 17 18 20 22 22 23 23 23 23 22 21 21 21 21 19 18 17 16 15 13 13 13 11 9 9 10 12 15 17 17 17 18 19 19 19 19 19 19 19 20 21 21 20 20 19 19 19 17 15 14 13 11 9 8 8 8 8 7 7 7 8 8 8 7 8
25 27 29 31 30 27 24 24 24 21 16 16 20 21 18 15 14 15 17 18 18 19 21 22 22 23 23 23 22 21 19 19 20 20 19 18 18 17 17 15 15 15 14 12 11 11 14 17 17 17 17 18 19 20 21 21 21 21 21 22 22 21 20 20 18 17 17 16 15 14 13 12 10 10 9 9 9 8 7 8 8 8 8 7 8
25 27 30 34 33 28 25 24 22 20 17 17 19 18 16 15 14 14 15 19 20 20 21 21 20 20 20 20 20 20 20 19 18 17 17 18 18 18 18 18 17 17 16 14 12 12 15 17 18 18 18 18 19 20 20 21 22 23 23 23 22 21 20 19 18 17 16 16 15 15 14 13 11 10 10 10 9 9 7 8 8 8 7 7 7
26 26 29 33 31 26 25 24 20 18 19 19 19 20 19 16 12 11 12 16 17 17 16 16 15 15 16 17 17 18 18 16 13 12 13 15 15 16 17 16 16 17 17 15 14 15 17 18 18 18 18 18 19 19 20 20 22 23 23 24 22 20 19 19 20 19 17 17 17 16 14 11 10 9 10 10 10 9 8 9 8 8 7 8 10
27 25 25 27 25 22 23 22 17 16 18 19 22 23 20 16 13 11 11 13 14 14 14 13 12 13 13 14 13 13 11 9 8 10 11 12 13 14 14 13 14 15 17 18 17 17 19 20 19 18 19 19 20 20 20 21 21 22 23 24 23 21 20 20 20 20 19 18 17 16 13 10 9 9 10 10 10 10 10 10 9 9 10 11 13
27 25 25 26 24 21 20 19 16 17 18 19 21 22 20 17 16 14 13 13 14 13 14 14 13 12 11 10 10 10 9 8 10 12 12 11 11 13 12 12 12 15 18 20 19 19 20 21 20 18 19 20 21 21 21 21 22 22 22 23 23 22 21 21 22 21 20 19 17 16 14 11 9 9 9 9 10 11 11 11 12 12 13 14 16
27 27 26 23 20 18 16 15 14 16 19 21 22 22 21 19 17 15 14 13 12 12 11 11 11 11 10 8 9 9 10 10 12 12 12 11 12 13 12 11 13 15 19 21 21 21 21 21 20 19 19 20 21 22 22 22 23 22 21 22 22 22 21 21 22 22 21 19 17 17 16 13 11 10 9 9 10 11 12 12 13 14 14 15 16
25 25 23 20 18 16 14 14 13 15 19 23 23 22 20 17 15 14 13 12 12 11 10 10 10 10 9 9 10 11 10 10 12 12 12 12 12 12 11 12 14 16 20 23 23 22 21 21 21 20 19 19 20 19 19 20 21 21 20 20 20 20 20 20 21 22 22 20 18 17 17 15 13 12 11 11 11 11 12 13 14 14 14 15 17
22 20 17 17 18 16 15 15 13 13 17 21 21 20 17 14 12 12 13 13 13 12 10 9 10 10 9 10 11 11 11 12 12 11 11 10 10 10 11 13 16 19 23 25 24 23 22 21 21 20 20 20 19 18 16 16 17 18 18 18 19 19 19 20 22 23 24 22 21 19 18 17 16 15 14 13 13 13 13 14 14 14 14 16 18
19 16 15 16 16 15 15 15 13 13 16 18 17 16 14 12 11 11 11 11 11 10 10 10 9 9 9 9 10 11 13 13 12 11 11 10 10 10 12 14 17 21 24 25 25 24 23 22 21 20 20 20 20 18 16 15 15 14 14 16 18 19 20 21 23 24 24 24 23 21 20 18 17 17 16 15 14 14 14 14 14 14 15 17 19
19 18 16 15 14 14 14 13 12 13 15 16 15 13 12 11 11 9 8 8 8 8 8 8 7 7 7 9 10 12 13 13 12 11 12 12 11 11 11 12 14 18 22 25 25 25 24 23 22 21 20 21 22 19 17 16 16 14 12 13 15 18 20 22 23 23 24 24 23 22 21 19 18 17 17 17 16 15 14 13 14 15 16 18 19
20 19 17 16 15 15 14 12 11 12 14 14 12 11 11 10 9 8 7 7 7 7 7 7 7 7 8 9 10 11 12 13 13 13 13 13 13 12 12 11 12 14 18 21 24 26 26 26 25 23 22 22 22 20 17 17 17 15 13 13 14 17 19 21 22 23 23 23 23 22 22 20 18 18 18 18 18 16 14 14 16 17 18 18 17
18 16 16 16 15 15 14 13 12 13 14 13 11 11 11 11 9 9 9 8 7 7 7 7 7 7 8 9 10 11 12 13 13 14 14 14 13 12 12 12 12 12 13 15 18 22 25 27 27 26 24 23 23 21 19 18 18 16 13 13 15 16 18 20 21 22 23 23 23 23 22 21 20 20 20 19 18 17 15 16 19 19 17 16 17
15 14 13 14 14 14 14 14 12 12 13 12 11 10 10 9 8 7 7 7 7 7 7 8 7 8 9 9 10 11 12 12 12 12 12 13 13 12 12 12 12 12 12 12 14 17 20 23 24 24 23 23 23 20 19 19 18 16 14 13 14 16 18 20 20 20 21 22 21 20 20 20 20 21 21 20 19 18 18 19 19 17 16 17 19
14 12 12 13 13 14 14 14 13 12 11 10 10 9 8 8 7 6 4 4 5 6 7 8 8 8 9 9 9 9 9 10 10 10 11 12 13 14 14 13 13 13 13 14 13 14 16 17 19 20 22 23 22 21 20 20 18 17 16 15 14 15 19 21 21 20 20 20 19 18 18 19 21 22 22 21 20 19 19 19 17 16 17 20 21
11 10 11 12 13 13 13 13 13 12 11 10 9 9 8 7 7 6 4 3 4 5 7 7 8 8 8 8 7 7 8 8 8 10 11 11 12 13 13 13 13 13 14 14 13 13 12 12 14 16 19 21 22 21 21 20 19 18 18 18 17 17 19 21 21 20 19 19 18 18 18 19 20 21 22 22 20 18 18 17 17 18 20 22 22
9 10 10 11 11 11 11 11 10 9 9 9 9 9 9 8 7 6 5 3 3 5 6 7 8 9 9 8 8 8 8 8 8 9 10 11 11 12 12 12 12 13 13 13 12 11 10 9 10 12 15 18 20 22 22 22 21 20 21 21 20 19 20 21 20 18 18 19 18 17 18 18 19 21 23 22 18 17 17 17 18 20 21 21 22
9 10 10 10 9 9 8 8 7 6 6 7 7 8 9 8 8 7 6 4 4 6 7 8 9 9 9 9 9 9 9 8 8 9 9 10 11 12 12 12 12 12 12 13 12 10 9 8 8 9 11 14 17 19 21 21 21 21 20 20 20 19 19 20 19 17 18 19 19 18 18 18 18 20 20 17 15 16 18 19 19 20 20 20 21
9 9 9 9 9 8 7 6 6 5 5 4 5 6 7 7 7 7 7 6 5 6 8 9 9 9 9 8 9 9 9 8 8 8 8 8 9 10 11 12 12 11 11 11 11 10 8 8 8 9 10 11 13 16 17 18 18 17 17 17 17 17 17 18 18 18 19 19 19 19 18 18 19 19 16 15 16 18 19 18 18 19 20 21 21
8 8 8 7 7 7 7 7 7 7 6 6 6 7 7 8 8 8 7 7 6 7 8 10 10 10 9 9 9 9 9 8 7 7 6 5 6 7 9 10 11 11 11 11 11 10 10 10 9 9 9 10 11 13 14 14 14 14 15 15 15 15 15 16 16 17 18 19 20 19 17 17 17 14 12 15 18 19 18 17 17 19 21 21 21
8 8 8 8 8 8 9 9 8 8 8 8 8 9 9 10 9 8 8 8 8 8 8 9 10 10 10 10 9 9 9 8 7 6 5 4 5 6 8 10 11 12 12 13 13 13 12 12 11 11 11 11 12 12 13 14 14 14 15 16 15 15 15 15 16 17 18 19 19 17 15 14 12 12 13 16 19 18 17 17 18 20 21 20 20
6 7 7 7 7 7 7 8 8 9 9 9 9 9 10 9 9 8 8 8 8 8 8 9 9 10 10 10 9 9 8 7 6 5 4 4 5 6 7 9 11 13 15 16 16 16 15 14 14 14 14 14 14 13 14 14 14 15 16 16 15 14 14 14 14 15 16 16 16 17 15 12 13 16 17 19 18 16 15 17 19 20 19 19 20
4 5 6 6 7 7 8 8 9 9 9 9 9 9 9 8 8 8 8 8 8 8 8 8 7 8 9 9 9 9 8 7 6 6 5 4 4 4 6 7 9 12 15 17 18 19 18 17 16 15 14 13 13 12 12 14 14 15 15 14 13 13 12 11 12 15 16 16 16 14 14 13 15 17 17 16 15 16 17 19 19 18 18 20 20
2 3 4 5 6 7 7 8 8 8 8 8 8 8 8 8 8 8 8 8 8 8 7 7 6 7 8 9 9 9 8 8 8 7 5 4 4 4 6 7 8 9 10 12 15 18 19 18 17 16 14 12 11 11 12 12 13 13 13 12 11 11 11 11 12 15 18 16 11 10 13 14 14 15 14 13 15 18 20 20 18 18 19 20 20
3 3 4 5 5 5 6 6 7 7 7 8 8 8 7 7 8 8 7 7 7 7 7 7 7 7 7 8 8 8 8 8 8 8 7 5 5 5 6 7 8 8 8 9 10 12 14 15 15 13 12 11 11 12 11 10 10 10 10 11 11 10 11 13 14 16 15 13 11 11 12 12 11 11 12 14 16 18 18 17 17 18 19 19 19
3 2 2 2 3 3 4 5 6 7 8 8 8 8 7 7 7 6 6 6 7 7 8 8 8 8 8 8 8 8 8 8 9 9 8 7 7 7 8 9 8 8 8 8 8 8 9 9 9 10 11 13 13 11 10 10 10 10 10 10 9 9 8 9 10 10 10 11 11 11 10 8 8 11 14 16 16 16 16 17 18 18 18 18 18
Wind_Direction
218 222 223 222 222 225 227 227 228 230 230 231 232 234 237 239 242 247 252 257 259 262 269 278 283 284 282 280 268 257 251 232 209 216 245 261 278 270 262 272 243 223 214 209 203 198 199 205 208 207 208 206 203 201 197 197 201 205 208 209 215 225 233 240 247 221 200 194 189 180 165 165 183 206 260 297 316 321 328 346 357 2 8 16 34
218 222 223 221 221 224 225 225 226 228 226 225 228 231 233 237 242 244 247 254 256 261 271 278 285 285 279 280 272 242 230 232 220 224 244 252 259 265 277 250 220 222 219 212 208 206 202 204 208 202 195 193 191 190 191 195 198 201 206 210 215 225 232 240 256 253 218 196 184 177 170 168 182 205 251 286 299 300 318 341 351 360 8 18 41
218 221 220 219 219 221 222 223 226 225 222 223 225 227 231 238 240 239 244 252 257 263 272 276 277 274 260 271 282 261 243 243 238 241 248 245 242 248 242 206 217 221 223 223 218 216 211 205 203 195 185 180 180 183 188 194 199 202 206 210 217 225 232 244 256 255 226 199 182 176 175 174 185 211 250 276 280 284 314 341 349 358 8 21 50
217 219 219 217 217 217 218 221 223 222 220 221 222 224 232 237 234 235 243 250 257 265 272 272 261 243 242 268 293 282 257 250 249 256 264 251 226 219 209 207 215 216 213 224 229 224 218 206 195 188 182 177 177 180 185 192 197 202 206 210 217 223 232 245 248 239 221 202 183 173 178 182 193 216 249 263 260 274 310 339 347 355 8 25 60
216 218 217 214 214 215 215 219 221 221 218 217 219 224 230 231 229 234 242 248 257 262 265 265 246 225 249 271 291 286 271 263 258 264 271 254 211 188 203 214 220 223 214 211 218 218 211 199 191 188 182 178 179 182 184 189 193 198 204 210 216 221 229 237 230 207 202 201 187 177 179 188 201 219 241 253 252 270 307 336 347 355 8 32 81
214 215 214 213 213 212 213 218 219 217 214 214 217 221 225 228 232 238 242 246 252 252 249 244 233 239 251 245 243 282 285 282 265 262 269 255 212 150 180 222 220 213 214 211 205 205 198 187 188 191 185 180 184 186 186 189 191 195 202 208 216 222 225 223 208 186 185 194 191 186 187 192 205 221 229 233 242 266 306 336 345 352 15 78 119
212 213 213 212 211 211 213 215 213 210 211 211 215 221 226 230 236 239 239 240 241 238 232 223 225 240 232 197 215 255 265 271 265 272 279 254 214 167 183 223 228 205 203 212 206 201 195 190 192 190 179 175 185 191 189 190 191 195 201 209 215 216 211 205 195 182 184 190 194 194 193 196 205 214 216 219 231 251 295 337 243 251 132 140 143
209 210 211 211 210 210 212 211 209 210 210 210 217 224 223 225 233 236 230 227 229 227 222 219 224 227 202 188 227 241 245 266 276 287 288 263 228 202 205 224 226 204 203 209 207 204 197 192 192 183 169 168 182 195 197 195 194 194 196 202 205 201 197 196 190 182 186 195 199 197 197 201 203 202 204 209 215 224 236 178 180 177 160 155 157
208 208 209 211 210 208 210 209 207 209 209 210 220 221 215 223 235 232 219 219 224 218 214 217 222 219 200 203 235 238 245 280 295 299 297 280 252 228 217 216 207 202 212 212 209 209 202 194 190 181 172 171 179 189 195 196 197 196 194 193 192 190 189 192 190 186 191 198 201 200 202 203 201 198 200 200 204 217 214 179 175 173 161 158 165
207 206 208 211 208 206 209 209 207 209 209 212 218 217 219 233 235 221 212 219 221 214 211 212 212 211 207 210 226 239 266 290 299 300 299 289 261 230 216 209 202 208 218 220 219 214 206 201 196 189 183 179 181 185 188 189 183 179 187 190 189 188 188 190 191 193 198 205 205 205 204 201 198 198 196 193 200 212 203 179 172 169 161 160 166
206 205 207 209 208 205 207 207 205 207 208 212 216 218 229 238 226 209 214 218 215 214 215 209 203 202 204 204 208 248 280 281 289 300 304 304 266 224 213 210 212 216 221 227 231 225 218 212 204 198 193 187 185 186 187 187 179 171 175 180 182 184 184 189 198 203 208 212 209 207 204 198 195 190 185 184 186 186 181 170 167 169 168 167 154
204 205 206 208 207 206 207 207 205 206 208 212 215 220 232 231 213 206 216 215 210 214 214 204 200 203 204 199 199 230 262 260 268 308 316 325 306 226 215 218 223 226 228 232 234 233 232 225 214 206 200 194 192 190 189 188 183 179 180 178 176 174 172 185 210 215 222 226 219 208 201 196 192 183 177 174 168 164 164 161 160 164 165 158 97
204 204 206 208 206 205 207 208 205 205 207 211 214 218 220 211 204 209 217 214 211 215 215 204 201 206 207 197 190 207 238 240 244 300 323 337 317 233 214 221 229 233 235 237 236 235 235 231 222 213 204 197 196 196 195 191 186 183 183 181 177 173 173 185 199 201 216 232 230 210 194 192 191 181 172 168 163 160 160 157 156 155 147 125 72
203 203 205 206 204 205 208 208 204 203 207 210 210 210 206 202 206 212 214 214 210 210 217 214 207 206 205 197 190 198 227 240 238 282 325 339 299 235 215 217 226 231 231 232 236 235 235 233 229 222 211 202 199 201 201 196 192 189 186 184 182 180 183 193 199 197 200 209 218 209 185 174 174 173 168 166 164 162 160 157 155 150 139 122 75
202 203 206 205 203 207 210 206 203 205 209 208 204 206 208 206 206 206 209 217 213 209 218 227 220 209 197 195 196 198 222 240 236 251 301 306 262 228 213 213 218 221 223 229 235 236 234 231 229 227 219 209 204 204 204 202 199 194 190 188 188 188 191 196 201 206 206 200 198 195 176 156 147 154 163 166 167 166 165 162 157 150 144 135 90
202 203 203 202 203 209 208 204 203 206 208 207 206 208 205 202 205 204 203 212 213 211 220 230 223 206 193 195 200 197 214 233 231 238 262 261 246 221 211 213 216 219 228 235 239 238 234 227 225 226 221 214 210 208 206 206 205 199 195 193 192 192 194 196 200 205 206 201 196 190 174 153 137 143 162 173 173 170 169 166 160 157 161 174 261
201 202 202 202 206 209 204 200 202 203 203 205 208 211 207 201 206 208 207 212 211 208 215 223 215 199 195 199 198 199 220 230 229 233 247 257 256 226 213 214 217 225 233 238 242 243 238 230 225 221 217 215 214 211 208 209 209 205 201 199 198 198 199 201 205 206 206 205 199 188 172 156 137 138 161 177 178 174 171 169 167 172 207 304 297
201 203 203 205 207 205 199 200 203 203 203 203 204 206 206 202 206 209 210 215 213 208 214 225 216 199 200 206 200 202 223 232 229 233 243 257 270 246 226 221 223 230 237 241 245 245 237 231 225 217 214 217 219 214 209 208 210 208 207 207 207 208 207 208 210 211 212 211 202 189 175 166 152 140 161 180 181 176 173 176 188 215 318 332 306
202 203 203 204 205 203 199 201 204 204 207 210 206 201 203 212 219 215 206 207 215 218 222 228 220 203 205 220 219 216 229 236 234 238 243 253 272 260 237 229 231 237 242 246 252 252 240 227 217 212 213 217 219 214 208 207 208 210 211 214 217 217 214 214 215 216 217 214 205 197 189 182 174 155 167 184 184 180 183 194 217 259 324 313 284
202 203 204 202 202 201 201 203 207 210 216 218 210 204 208 217 215 206 203 217 230 225 221 226 224 210 208 222 228 227 235 239 236 239 243 246 263 263 244 240 242 243 245 243 246 251 242 222 210 209 212 213 213 211 208 206 208 210 214 218 223 222 218 217 219 220 220 215 205 204 203 200 199 189 178 186 187 189 197 211 235 282 308 261 263
202 202 202 202 203 203 202 205 208 213 219 216 207 205 207 204 201 204 221 240 233 216 214 221 221 213 213 225 232 232 237 240 236 238 242 243 249 249 247 257 258 251 248 244 239 238 234 221 213 213 210 206 206 208 207 206 206 208 213 218 222 223 223 223 223 224 223 216 206 207 213 214 215 214 198 192 195 200 208 223 250 291 307 249 264
199 199 201 205 207 205 204 207 211 217 220 211 201 198 196 194 200 219 243 244 219 208 215 219 214 211 213 223 235 238 240 241 237 236 239 242 245 246 251 270 276 265 256 253 248 239 228 219 216 216 210 203 203 205 207 206 205 205 208 211 214 219 223 225 225 225 225 220 212 213 219 223 224 226 218 202 205 211 218 233 257 281 299 275 272
201 202 200 200 202 203 206 212 215 217 214 203 193 195 200 202 212 227 241 236 211 204 213 217 216 215 214 219 232 239 241 242 240 238 240 243 248 252 254 265 276 276 266 260 256 243 223 214 215 216 211 204 202 203 205 206 207 206 205 208 215 219 222 223 223 224 224 223 220 222 226 227 228 233 232 216 215 223 232 244 257 272 291 291 274
201 201 199 200 201 205 214 218 211 203 196 189 190 204 208 208 210 217 230 231 211 204 210 215 217 219 220 224 234 239 241 243 242 240 241 243 252 259 259 262 272 274 266 254 245 232 217 213 216 217 215 209 205 205 207 209 212 212 210 212 218 221 223 224 224 224 224 224 225 227 230 233 234 240 242 228 225 234 242 247 254 266 283 286 269
198 198 201 202 201 206 214 213 201 191 185 184 198 210 207 203 205 215 229 225 211 207 211 215 219 222 224 230 235 239 241 242 241 240 241 243 251 259 263 267 268 264 256 243 231 216 208 216 223 222 220 217 212 212 214 215 217 219 219 221 224 226 227 227 227 227 227 228 228 229 233 238 241 243 243 234 234 248 253 246 250 263 272 271 270
198 197 201 205 205 207 207 199 190 186 186 195 207 207 204 205 215 233 235 221 210 207 209 213 217 221 225 231 237 241 243 244 243 243 243 246 252 259 265 268 260 251 245 240 229 208 202 217 227 224 221 222 224 226 227 226 227 227 226 228 230 230 229 230 230 230 231 231 232 232 236 242 243 243 244 238 240 258 258 240 243 257 259 258 273
193 196 203 208 206 202 197 191 186 183 189 202 203 198 198 209 229 241 233 218 211 209 207 210 214 219 226 232 237 241 244 246 247 245 245 249 256 263 269 267 253 241 234 233 231 215 205 212 219 220 223 229 232 234 234 234 236 236 234 233 233 232 232 233 233 232 233 235 236 236 239 242 242 245 245 238 243 260 256 234 234 246 247 250 271
194 201 207 205 200 195 190 187 180 176 184 198 203 205 210 222 237 242 227 214 212 210 207 208 213 220 227 233 237 240 241 244 249 253 255 259 264 268 270 265 252 241 232 228 231 227 215 210 211 216 226 233 235 236 239 239 240 240 237 234 232 232 235 235 231 230 232 234 235 237 240 239 240 242 239 236 246 259 246 224 226 235 240 253 274
198 206 206 197 191 188 185 181 176 179 187 195 203 208 211 218 230 229 211 207 209 211 213 216 219 225 231 235 240 246 248 250 256 261 262 263 266 268 267 263 255 247 237 230 232 232 223 215 213 217 226 233 237 239 242 243 241 237 233 228 228 232 238 237 232 231 233 234 236 238 237 233 232 235 234 234 245 247 225 212 222 236 249 268 282
197 202 198 187 179 180 181 178 179 187 194 198 202 204 204 211 219 213 202 203 207 211 220 229 234 239 245 247 250 254 256 258 256 251 251 256 261 263 262 257 252 245 239 235 236 235 228 222 221 224 229 236 241 243 244 245 242 237 230 224 223 228 236 237 234 233 235 239 240 237 231 226 227 234 235 234 235 229 216 216 232 248 262 275 286
192 190 186 180 177 176 177 179 185 196 206 209 207 204 206 212 214 211 209 212 215 221 229 235 239 245 250 253 252 247 239 236 238 240 243 252 262 265 259 247 239 236 235 234 237 239 233 227 226 230 235 241 244 245 246 246 242 236 231 225 224 227 232 234 233 232 236 240 237 231 227 228 232 237 237 231 226 224 224 231 244 256 268 280 292
190 181 174 174 176 176 180 190 199 204 207 205 203 205 210 212 211 211 214 216 221 229 234 235 238 243 243 238 230 225 227 233 235 235 242 255 266 267 256 238 231 231 230 231 237 242 238 232 232 236 239 242 246 249 248 244 238 234 231 229 229 232 234 234 232 232 235 237 233 227 230 236 240 241 237 230 227 230 235 241 250 261 273 287 299
180 167 162 168 175 179 186 193 196 196 196 194 196 202 207 209 209 209 210 211 214 218 221 226 232 235 235 228 217 213 224 236 235 236 246 256 262 261 247 230 225 227 228 230 236 241 239 235 237 240 242 246 251 253 251 244 238 235 234 233 235 237 238 236 232 230 231 233 232 233 237 243 247 248 242 236 236 241 246 249 256 268 283 297 305
163 156 161 172 176 179 184 183 180 182 186 189 193 197 200 203 202 198 201 207 210 211 215 225 229 225 222 218 213 214 226 235 236 239 244 243 241 241 234 223 220 226 230 232 236 239 237 235 237 240 242 244 247 248 246 239 235 235 235 236 237 238 238 236 232 229 229 231 234 239 245 249 252 251 246 243 243 246 251 255 263 278 294 302 304
152 155 165 174 175 176 179 177 175 177 181 185 189 193 193 190 188 191 201 212 219 224 229 231 229 225 220 217 217 223 230 232 232 233 229 223 223 228 228 223 221 224 228 231 233 234 234 235 238 240 240 240 241 242 242 236 230 232 237 238 239 239 238 235 232 230 229 230 235 241 248 252 252 249 245 245 245 248 254 262 273 288 297 298 297
141 146 154 164 166 164 165 168 169 172 175 180 185 187 184 182 185 193 204 212 219 225 225 220 217 218 219 221 224 227 228 226 226 226 222 218 220 227 234 237 233 230 231 233 234 235 236 236 236 238 241 242 239 239 241 239 232 232 242 248 245 240 237 234 232 229 228 230 235 241 246 249 248 244 242 243 245 250 258 270 281 290 293 293 294
132 136 141 146 149 150 154 158 159 161 167 175 181 180 176 174 177 184 195 208 214 210 199 196 203 213 222 223 221 220 220 219 220 222 220 217 221 230 240 246 245 240 237 237 238 239 241 241 240 242 246 244 238 237 241 240 233 233 246 257 254 244 237 232 230 230 230 232 236 242 247 246 243 242 241 241 244 250 259 273 285 290 290 291 296
132 133 132 134 138 141 146 151 150 151 159 165 167 167 169 174 180 188 196 204 204 196 192 196 207 221 229 224 217 216 217 217 219 223 224 225 231 240 247 250 251 249 247 245 243 242 243 244 245 247 248 243 238 238 241 238 233 236 249 261 259 248 236 228 227 228 232 237 241 246 247 244 241 241 241 241 244 250 258 274 287 291 289 292 299
142 141 136 137 137 135 140 150 152 149 150 152 151 154 160 167 171 180 188 192 191 193 200 209 220 225 223 220 219 221 223 223 227 233 237 240 244 250 254 257 259 261 260 258 254 251 247 243 242 242 242 239 237 238 238 234 233 239 251 261 261 246 230 223 225 230 237 242 244 243 242 242 241 241 241 242 244 248 260 278 289 289 288 296 303
151 152 148 145 142 137 138 144 149 148 147 148 148 148 148 146 145 148 158 177 194 210 220 229 236 232 220 217 222 227 228 231 236 242 245 248 251 253 255 259 262 266 269 271 271 267 259 248 238 234 235 237 238 238 235 232 235 242 250 256 257 244 230 225 228 235 242 243 240 237 238 241 242 241 240 239 241 249 267 283 286 283 289 299 304
158 161 158 153 153 152 149 146 146 147 146 144 142 139 137 133 128 130 143 169 204 226 232 234 233 225 214 212 216 221 226 232 237 241 245 247 249 252 254 258 261 264 268 271 271 270 267 258 244 234 233 236 238 237 234 235 241 247 250 253 254 249 237 230 232 239 241 238 233 235 239 242 242 242 238 235 239 255 273 279 277 281 291 299 301
162 170 171 167 165 164 161 156 154 153 155 157 155 150 150 149 145 145 155 176 211 223 219 212 207 205 207 212 218 225 231 236 241 245 248 248 248 247 246 248 254 260 264 264 261 260 264 265 255 243 239 238 238 238 238 241 245 249 252 254 254 251 242 236 237 239 236 231 232 238 241 242 242 238 233 232 243 261 270 270 274 284 292 298 300
163 169 175 178 176 170 165 164 167 169 174 177 175 172 173 176 176 178 185 197 208 209 203 197 195 200 209 219 226 232 238 243 246 248 250 252 251 248 242 237 240 249 254 251 244 245 255 262 258 249 244 240 237 237 238 239 241 246 250 251 250 246 241 238 238 235 231 230 234 238 242 243 239 233 232 241 256 265 266 270 278 286 292 298 301
164 165 167 171 173 172 169 173 184 195 199 201 203 202 203 204 206 211 213 214 212 206 199 196 200 207 215 225 232 235 240 245 247 245 245 249 250 248 242 237 235 239 242 237 233 239 253 258 252 244 239 235 233 231 230 230 234 238 242 244 243 240 235 233 233 232 230 230 235 240 244 241 232 229 239 255 261 262 268 275 279 285 294 300 300
172 174 177 182 187 192 198 208 216 219 219 218 218 217 218 220 223 226 223 220 217 210 202 202 209 215 223 232 236 234 236 239 238 231 230 235 240 239 237 234 231 230 228 226 227 237 249 250 245 240 238 236 234 232 230 231 235 238 242 244 240 232 228 227 228 227 227 232 240 245 242 234 232 241 256 260 259 263 270 274 278 288 298 300 296
189 195 202 207 209 209 211 217 224 229 232 232 227 222 220 220 223 226 224 220 218 214 211 212 216 221 230 237 235 231 232 232 224 214 212 221 232 235 232 229 227 223 221 222 227 236 243 244 239 236 236 237 237 237 237 240 243 245 244 239 229 223 222 221 218 223 233 242 245 238 223 224 248 269 265 256 258 264 268 273 285 296 299 296 293
207 210 212 217 221 223 225 226 226 225 225 224 220 217 215 215 219 223 223 219 215 213 215 219 222 226 232 232 226 223 225 219 206 199 205 222 239 244 240 235 231 226 224 226 229 234 238 239 236 235 238 241 243 243 241 240 240 238 233 224 216 212 212 210 215 231 240 237 227 221 220 236 263 267 256 251 256 264 272 284 295 298 295 293 295
230 232 231 233 236 235 231 226 218 209 206 206 205 206 209 211 213 212 210 208 207 210 215 222 226 226 225 220 213 213 214 206 196 193 197 210 230 246 252 252 245 238 235 235 235 237 239 239 239 242 247 249 246 239 233 231 229 224 216 207 201 203 211 221 237 244 232 210 204 221 244 260 263 257 252 253 260 271 284 293 296 294 292 295 297
214 210 199 199 203 204 205 208 205 199 196 195 195 195 198 199 198 198 197 198 201 208 217 224 222 216 213 210 208 210 210 204 196 192 194 202 227 255 270 275 271 265 259 252 245 243 244 243 244 249 252 246 232 221 217 215 211 202 197 199 206 221 237 246 240 228 217 209 216 248 263 261 254 251 253 262 276 286 292 294 292 292 295 297 298
157 166 160 162 171 178 181 185 190 192 192 188 184 184 185 186 188 191 194 196 205 221 230 226 212 202 205 210 212 212 210 206 201 200 204 216 238 261 277 282 280 279 275 266 257 252 248 244 243 245 240 223 208 200 196 195 195 198 211 226 232 236 240 232 216 210 217 232 250 259 257 252 251 259 271 284 291 294 293 292 291 294 296 297 299
133 147 150 134 116 119 143 160 171 180 184 183 179 178 179 181 186 194 203 215 229 237 233 220 204 196 200 207 210 209 209 208 209 214 222 231 242 257 271 279 279 275 268 262 260 258 250 241 237 231 217 206 199 194 195 206 219 227 232 227 215 206 212 215 212 217 233 244 246 245 247 256 273 287 293 296 295 291 289 291 294 295 295 297 299
Height
1473 1477 1480 1484 1488 1491 1494 1496 1498 1500 1503 1505 1508 1510 1512 1515 1517 1519 1521 1522 1523 1525 1525 1525 1525 1526 1529 1529 1529 1530 1531 1532 1533 1535 1536 1536 1536 1537 1537 1537 1538 1539 1540 1540 1540 1541 1542 1543 1544 1544 1545 1545 1546 1547 1548 1550 1552 1554 1556 1558 1559 1559 1560 1561 1562 1563 1564 1565 1566 1567 1568 1568 1568 1569 1569 1569 1569 1569 1568 1567 1566 1566 1566 1566 1566
1471 1474 1477 1482 1486 1489 1492 1494 1496 1499 1501 1504 1506 1509 1511 1514 1516 1518 1519 1520 1522 1523 1524 1524 1524 1525 1527 1528 1529 1530 1532 1532 1534 1534 1535 1535 1535 1536 1536 1536 1537 1538 1539 1540 1540 1541 1541 1542 1543 1543 1544 1544 1545 1547 1548 1550 1551 1553 1555 1557 1558 1559 1560 1561 1561 1562 1563 1564 1565 1566 1567 1567 1568 1568 1568 1568 1568 1568 1568 1567 1566 1566 1566 1566 1566
1469 1472 1475 1480 1484 1488 1490 1492 1495 1497 1499 1502 1504 1507 1510 1512 1515 1516 1518 1519 1520 1522 1523 1523 1524 1524 1526 1527 1528 1529 1531 1532 1533 1533 1533 1534 1535 1535 1535 1535 1537 1538 1539 1539 1539 1540 1540 1541 1542 1543 1544 1544 1545 1546 1548 1549 1551 1553 1555 1556 1557 1558 1559 1560 1561 1561 1562 1563 1564 1565 1566 1566 1567 1567 1567 1567 1568 1568 1567 1567 1566 1566 1566 1567 1567
1467 1470 1474 1478 1483 1486 1488 1491 1493 1495 1498 1500 1503 1506 1508 1511 1513 1515 1516 1517 1518 1520 1521 1522 1523 1525 1525 1526 1527 1528 1529 1530 1532 1532 1532 1533 1533 1533 1534 1535 1536 1537 1538 1538 1539 1539 1540 1540 1541 1543 1544 1544 1545 1546 1548 1549 1551 1552 1554 1555 1556 1558 1559 1560 1561 1561 1561 1562 1563 1564 1565 1566 1566 1566 1566 1567 1567 1567 1567 1566 1566 1566 1567 1567 1567
1464 1467 1472 1477 1480 1484 1486 1489 1491 1493 1496 1499 1501 1504 1507 1509 1511 1513 1514 1515 1517 1518 1520 1521 1523 1524 1525 1526 1527 1528 1529 1529 1530 1531 1531 1531 1531 1532 1533 1535 1536 1536 1537 1538 1538 1539 1540 1540 1541 1542 1543 1544 1545 1546 1548 1549 1550 1552 1553 1555 1556 1557 1558 1559 1560 1560 1561 1562 1562 1563 1564 1565 1565 1565 1565 1566 1566 1566 1566 1566 1566 1567 1567 1567 1567
1462 1466 1470 1475 1478 1481 1484 1487 1489 1491 1494 1497 1500 1503 1505 1507 1509 1511 1513 1514 1515 1517 1518 1520 1522 1523 1524 1525 1526 1527 1528 1528 1529 1529 1530 1530 1530 1530 1532 1534 1535 1536 1537 1538 1538 1539 1539 1540 1542 1542 1543 1544 1546 1547 1548 1549 1550 1551 1553 1554 1555 1557 1558 1559 1559 1560 1561 1562 1562 1563 1563 1563 1564 1564 1565 1565 1565 1566 1566 1566 1566 1567 1567 1568 1568
1460 1464 1468 1472 1476 1479 1482 1485 1487 1490 1493 1496 1499 1501 1504 1506 1508 1509 1511 1512 1514 1516 1517 1519 1521 1522 1524 1525 1526 1527 1527 1527 1528 1529 1529 1529 1529 1530 1532 1533 1533 1534 1536 1537 1538 1538 1539 1540 1542 1543 1543 1545 1546 1547 1547 1548 1550 1551 1552 1553 1555 1556 1557 1558 1559 1560 1561 1561 1562 1562 1562 1563 1563 1563 1564 1564 1565 1565 1565 1565 1566 1567 1568 1568 1568
1458 1463 1467 1470 1474 1477 1480 1483 1486 1489 1492 1494 1497 1499 1502 1504 1506 1507 1509 1511 1513 1515 1516 1518 1520 1521 1523 1525 1525 1526 1526 1527 1527 1528 1528 1529 1529 1530 1531 1532 1532 1533 1535 1536 1537 1538 1538 1540 1541 1543 1544 1545 1546 1547 1548 1549 1550 1550 1552 1553 1554 1555 1556 1557 1558 1559 1560 1561 1561 1561 1561 1562 1562 1562 1563 1563 1564 1564 1564 1565 1566 1567 1567 1568 1568
1457 1461 1465 1468 1472 1475 1478 1481 1484 1487 1490 1493 1495 1497 1500 1502 1503 1506 1508 1509 1511 1513 1515 1518 1519 1521 1522 1524 1524 1525 1526 1526 1527 1527 1527 1528 1528 1529 1530 1531 1532 1533 1535 1536 1537 1537 1538 1540 1541 1542 1543 1544 1546 1547 1548 1549 1550 1551 1551 1552 1553 1554 1555 1557 1558 1559 1559 1560 1560 1560 1560 1561 1561 1562 1562 1563 1563 1563 1564 1565 1565 1566 1567 1567 1568
1455 1459 1463 1466 1470 1473 1476 1479 1482 1485 1488 1491 1493 1496 1498 1500 1502 1504 1506 1508 1510 1512 1514 1516 1518 1520 1521 1523 1523 1524 1525 1526 1526 1527 1527 1527 1528 1528 1529 1531 1532 1533 1534 1536 1536 1537 1538 1540 1541 1542 1543 1544 1545 1547 1548 1549 1550 1550 1551 1552 1553 1554 1555 1556 1557 1558 1559 1559 1559 1559 1559 1560 1560 1561 1561 1562 1562 1563 1563 1564 1565 1565 1567 1567 1568
1453 1457 1461 1464 1468 1471 1474 1477 1480 1483 1486 1489 1491 1494 1496 1498 1500 1503 1504 1507 1509 1511 1513 1515 1517 1519 1521 1522 1523 1523 1525 1526 1526 1527 1527 1527 1528 1528 1529 1530 1531 1533 1534 1535 1536 1537 1538 1539 1540 1542 1542 1543 1545 1546 1547 1548 1549 1550 1551 1551 1553 1554 1555 1556 1557 1557 1558 1558 1558 1558 1559 1559 1560 1560 1561 1561 1562 1562 1563 1563 1564 1565 1566 1567 1567
1451 1455 1459 1462 1466 1469 1472 1475 1478 1481 1484 1487 1490 1492 1494 1496 1498 1501 1503 1505 1508 1510 1512 1514 1516 1518 1520 1521 1522 1523 1524 1525 1526 1526 1526 1526 1527 1527 1529 1530 1531 1533 1534 1535 1536 1537 1538 1539 1540 1541 1542 1543 1544 1545 1546 1547 1548 1550 1551 1551 1552 1553 1554 1555 1556 1557 1557 1557 1557 1558 1558 1559 1559 1560 1560 1560 1561 1562 1562 1563 1563 1564 1566 1566 1566
1450 1453 1457 1461 1464 1467 1470 1473 1476 1479 1482 1485 1488 1490 1492 1494 1496 1499 1501 1504 1506 1509 1511 1513 1515 1517 1518 1520 1521 1522 1523 1524 1525 1526 1526 1526 1526 1527 1528 1530 1531 1533 1534 1535 1536 1536 1537 1538 1540 1541 1542 1543 1544 1545 1546 1547 1548 1549 1550 1551 1552 1552 1553 1554 1555 1556 1557 1557 1557 1557 1558 1558 1559 1559 1560 1560 1561 1561 1562 1563 1563 1564 1565 1566 1566
1448 1451 1455 1459 1462 1465 1468 1471 1474 1478 1481 1484 1486 1488 1491 1493 1495 1498 1500 1503 1505 1507 1509 1511 1513 1515 1517 1519 1521 1522 1523 1523 1524 1525 1525 1525 1526 1527 1528 1529 1531 1532 1533 1534 1535 1536 1537 1538 1539 1540 1541 1542 1544 1545 1546 1546 1547 1548 1549 1551 1551 1552 1553 1554 1555 1555 1556 1557 1557 1558 1558 1559 1559 1559 1559 1560 1561 1561 1562 1563 1563 1564 1564 1565 1565
1446 1450 1454 1457 1460 1463 1466 1470 1473 1476 1479 1482 1484 1487 1490 1492 1494 1496 1499 1502 1503 1506 1508 1510 1512 1514 1516 1518 1520 1521 1522 1523 1524 1524 1525 1525 1526 1526 1527 1529 1530 1532 1533 1534 1535 1536 1537 1538 1539 1540 1541 1542 1543 1544 1545 1546 1547 1548 1549 1550 1551 1552 1553 1554 1555 1555 1556 1557 1558 1558 1559 1559 1559 1559 1560 1560 1561 1561 1562 1563 1563 1563 1564 1564 1564
1445 1448 1452 1455 1458 1461 1464 1468 1471 1474 1477 1480 1483 1485 1488 1490 1493 1495 1498 1500 1502 1504 1507 1509 1511 1513 1515 1517 1518 1520 1521 1522 1523 1524 1524 1525 1525 1526 1527 1528 1530 1531 1532 1533 1534 1535 1536 1537 1538 1540 1541 1542 1543 1544 1545 1546 1547 1548 1549 1550 1551 1551 1552 1553 1554 1555 1556 1557 1558 1558 1559 1559 1560 1560 1560 1560 1560 1561 1562 1562 1562 1563 1563 1563 1563
1444 1447 1451 1454 1457 1460 1463 1466 1469 1473 1476 1478 1481 1484 1486 1489 1491 1493 1496 1498 1500 1502 1505 1507 1510 1512 1514 1515 1517 1519 1520 1521 1522 1523 1523 1524 1525 1525 1526 1527 1529 1530 1531 1532 1533 1534 1535 1536 1537 1539 1540 1541 1542 1543 1544 1546 1547 1548 1548 1549 1550 1551 1552 1553 1554 1555 1556 1557 1558 1558 1559 1559 1559 1560 1560 1560 1560 1561 1561 1562 1562 1561 1562 1562 1562
1443 1447 1450 1453 1456 1459 1462 1465 1468 1471 1474 1476 1479 1482 1485 1487 1489 1492 1494 1496 1498 1501 1504 1506 1509 1511 1512 1514 1515 1517 1518 1519 1520 1522 1523 1524 1524 1525 1526 1527 1528 1529 1530 1531 1532 1533 1534 1535 1536 1537 1539 1540 1541 1542 1543 1545 1546 1547 1548 1548 1549 1550 1551 1552 1554 1555 1556 1556 1557 1558 1558 1559 1559 1559 1559 1559 1559 1560 1560 1561 1560 1560 1560 1561 1561
1442 1445 1449 1452 1455 1458 1461 1464 1466 1469 1472 1475 1478 1481 1483 1486 1488 1490 1493 1495 1498 1501 1503 1505 1508 1510 1511 1513 1514 1515 1516 1518 1519 1520 1522 1523 1524 1525 1526 1527 1527 1528 1529 1530 1531 1532 1533 1533 1534 1536 1538 1539 1540 1541 1542 1544 1545 1546 1547 1548 1549 1550 1551 1552 1553 1554 1555 1556 1557 1557 1558 1558 1558 1558 1558 1558 1559 1559 1559 1559 1559 1559 1559 1559 1559
1441 1445 1448 1452 1455 1458 1460 1463 1465 1468 1471 1473 1477 1480 1482 1484 1486 1489 1491 1494 1497 1499 1502 1504 1506 1508 1510 1511 1512 1514 1515 1516 1518 1519 1520 1522 1523 1524 1525 1526 1526 1527 1528 1528 1529 1530 1532 1532 1533 1535 1536 1538 1539 1540 1542 1543 1544 1545 1546 1547 1549 1549 1550 1552 1553 1553 1554 1555 1556 1557 1557 1557 1557 1557 1557 1557 1558 1558 1558 1558 1558 1558 1558 1558 1558
1442 1445 1449 1452 1454 1457 1460 1462 1465 1467 1470 1472 1475 1478 1480 1483 1485 1488 1490 1492 1495 1497 1500 1503 1505 1506 1508 1510 1511 1512 1513 1514 1516 1518 1519 1521 1522 1523 1524 1525 1525 1526 1526 1526 1526 1528 1529 1531 1533 1534 1535 1536 1538 1539 1541 1542 1543 1545 1546 1547 1549 1549 1550 1551 1552 1553 1553 1554 1555 1556 1556 1556 1556 1556 1556 1557 1557 1557 1558 1558 1558 1558 1558 1558 1558
1442 1446 1449 1451 1454 1456 1459 1462 1464 1467 1469 1471 1474 1477 1480 1482 1484 1487 1489 1491 1493 1496 1498 1500 1502 1504 1506 1508 1509 1510 1511 1513 1514 1516 1518 1519 1520 1521 1523 1524 1524 1524 1525 1525 1525 1526 1527 1530 1532 1533 1534 1535 1537 1538 1540 1541 1542 1544 1545 1547 1548 1549 1549 1550 1551 1551 1552 1553 1554 1554 1555 1555 1555 1556 1556 1556 1556 1557 1557 1557 1557 1557 1558 1558 1557
1442 1445 1448 1451 1453 1456 1458 1461 1463 1466 1468 1471 1474 1476 1478 1481 1483 1485 1487 1489 1491 1494 1496 1498 1500 1502 1504 1505 1507 1508 1509 1511 1512 1514 1516 1517 1519 1520 1521 1522 1523 1523 1523 1524 1524 1525 1526 1528 1531 1532 1533 1535 1536 1538 1539 1541 1542 1543 1544 1546 1547 1547 1548 1549 1550 1550 1551 1552 1553 1553 1554 1554 1555 1555 1555 1555 1556 1556 1557 1557 1557 1557 1557 1557 1556
1441 1444 1447 1450 1453 1456 1458 1460 1463 1465 1468 1471 1473 1475 1477 1479 1482 1484 1486 1488 1490 1492 1494 1496 1498 1500 1502 1503 1505 1506 1507 1509 1511 1512 1514 1516 1517 1518 1519 1520 1521 1522 1522 1522 1523 1524 1525 1528 1530 1531 1533 1535 1537 1538 1539 1540 1541 1543 1544 1545 1546 1546 1547 1548 1549 1549 1550 1550 1551 1552 1552 1553 1553 1554 1554 1555 1555 1556 1556 1556 1556 1556 1556 1555 1555
1440 1443 1447 1450 1453 1456 1458 1460 1463 1465 1468 1470 1472 1474 1476 1478 1480 1483 1484 1486 1488 1490 1492 1494 1496 1498 1500 1501 1502 1503 1505 1507 1509 1510 1512 1514 1515 1516 1517 1518 1519 1520 1521 1522 1522 1523 1524 1527 1529 1530 1532 1534 1536 1537 1538 1540 1541 1542 1543 1544 1545 1545 1546 1547 1548 1548 1549 1549 1550 1551 1551 1552 1552 1553 1553 1553 1554 1554 1554 1555 1555 1555 1555 1554 1554
1439 1443 1446 1450 1452 1455 1457 1460 1463 1466 1468 1471 1473 1475 1476 1478 1480 1482 1483 1485 1486 1488 1490 1492 1494 1496 1497 1498 1500 1502 1504 1506 1507 1509 1510 1512 1513 1514 1515 1516 1517 1518 1519 1520 1521 1522 1523 1525 1527 1529 1530 1532 1534 1536 1537 1538 1540 1541 1542 1543 1544 1545 1546 1546 1547 1547 1548 1549 1549 1550 1551 1551 1551 1551 1551 1552 1552 1553 1553 1553 1554 1554 1554 1554 1553
1438 1442 1445 1448 1451 1454 1457 1460 1463 1466 1468 1470 1473 1474 1476 1478 1479 1481 1482 1483 1485 1486 1488 1490 1491 1493 1495 1496 1498 1500 1502 1504 1505 1507 1509 1510 1511 1512 1513 1514 1515 1516 1517 1519 1520 1521 1522 1523 1525 1527 1528 1530 1532 1533 1535 1536 1537 1538 1540 1541 1542 1543 1544 1545 1546 1547 1547 1548 1549 1549 1550 1550 1550 1550 1550 1551 1551 1551 1552 1552 1553 1553 1553 1553 1552
1436 1440 1443 1446 1450 1453 1456 1459 1462 1465 1468 1470 1472 1474 1475 1477 1478 1479 1480 1481 1483 1484 1486 1488 1490 1492 1493 1495 1497 1498 1500 1502 1504 1506 1507 1508 1509 1510 1511 1512 1513 1514 1515 1517 1519 1520 1521 1522 1523 1525 1526 1528 1530 1531 1532 1533 1534 1535 1537 1539 1540 1541 1542 1543 1544 1545 1546 1547 1548 1548 1549 1549 1549 1549 1549 1549 1550 1550 1550 1551 1551 1552 1552 1552 1552
1434 1438 1442 1446 1449 1452 1455 1458 1461 1463 1466 1468 1471 1472 1474 1476 1478 1478 1479 1480 1482 1484 1486 1488 1490 1491 1493 1494 1496 1497 1499 1501 1503 1504 1505 1506 1507 1508 1508 1509 1511 1512 1514 1516 1517 1518 1520 1521 1521 1523 1524 1526 1528 1529 1530 1531 1531 1532 1534 1536 1538 1540 1541 1542 1543 1544 1545 1545 1546 1547 1547 1548 1548 1548 1548 1548 1548 1548 1549 1549 1550 1550 1550 1550 1550
1434 1438 1442 1447 1449 1451 1454 1457 1460 1462 1464 1466 1468 1470 1472 1474 1476 1477 1478 1479 1481 1483 1485 1487 1489 1490 1492 1493 1495 1497 1499 1500 1502 1502 1503 1504 1505 1505 1506 1507 1509 1510 1512 1513 1515 1516 1518 1519 1520 1521 1522 1524 1525 1526 1528 1529 1529 1530 1531 1532 1535 1537 1539 1540 1541 1543 1543 1544 1545 1546 1546 1547 1547 1546 1546 1547 1547 1547 1548 1548 1548 1548 1548 1548 1548
1435 1438 1442 1446 1449 1451 1454 1456 1458 1460 1463 1464 1466 1468 1470 1472 1474 1475 1476 1478 1480 1482 1484 1485 1487 1489 1491 1493 1494 1496 1498 1499 1500 1500 1501 1502 1502 1503 1504 1505 1506 1508 1509 1511 1512 1514 1515 1517 1518 1519 1521 1522 1523 1524 1526 1526 1527 1529 1530 1531 1532 1534 1536 1537 1539 1541 1542 1543 1543 1544 1545 1545 1546 1546 1546 1546 1546 1546 1547 1547 1547 1547 1547 1546 1546
1435 1439 1443 1446 1449 1452 1454 1455 1456 1458 1460 1462 1464 1466 1468 1470 1471 1472 1474 1476 1478 1480 1482 1484 1486 1488 1490 1492 1493 1494 1496 1497 1498 1499 1499 1499 1500 1500 1501 1502 1503 1505 1507 1508 1509 1511 1513 1514 1516 1517 1518 1520 1521 1522 1523 1524 1525 1527 1528 1529 1531 1532 1534 1535 1537 1539 1541 1542 1542 1543 1543 1544 1544 1545 1545 1545 1545 1546 1546 1546 1546 1545 1545 1544 1544
1436 1440 1443 1446 1449 1451 1453 1454 1455 1457 1458 1460 1462 1464 1466 1468 1469 1471 1472 1474 1476 1478 1480 1482 1484 1486 1488 1490 1492 1493 1495 1496 1496 1497 1497 1498 1498 1498 1498 1499 1500 1502 1504 1505 1506 1508 1510 1512 1513 1515 1516 1517 1519 1520 1520 1521 1523 1524 1526 1527 1529 1530 1531 1533 1535 1537 1538 1540 1541 1541 1542 1542 1543 1544 1544 1544 1544 1545 1545 1544 1544 1544 1543 1543 1542
1438 1441 1443 1446 1449 1451 1452 1454 1455 1456 1458 1460 1461 1463 1464 1466 1467 1469 1471 1473 1475 1477 1479 1481 1483 1485 1487 1489 1490 1492 1493 1494 1495 1496 1496 1496 1496 1496 1496 1496 1497 1499 1500 1502 1503 1506 1508 1509 1511 1512 1514 1515 1516 1517 1518 1519 1521 1522 1524 1525 1526 1527 1529 1530 1532 1533 1535 1537 1539 1540 1540 1541 1541 1542 1542 1543 1543 1543 1543 1543 1543 1542 1542 1541 1540
1439 1441 1444 1446 1449 1450 1452 1453 1455 1456 1457 1459 1461 1462 1463 1464 1466 1467 1469 1471 1474 1476 1478 1480 1482 1484 1486 1488 1489 1490 1491 1492 1493 1494 1494 1494 1494 1494 1494 1494 1495 1496 1497 1499 1501 1503 1505 1507 1508 1510 1512 1513 1514 1515 1516 1518 1519 1520 1521 1522 1523 1524 1526 1527 1529 1530 1532 1534 1536 1537 1538 1539 1539 1540 1540 1541 1541 1541 1542 1542 1541 1541 1540 1539 1538
1438 1441 1444 1446 1448 1449 1451 1452 1454 1455 1457 1458 1460 1461 1462 1463 1465 1467 1468 1470 1473 1475 1477 1479 1481 1483 1485 1486 1488 1489 1490 1491 1491 1492 1492 1492 1492 1492 1493 1493 1493 1494 1495 1497 1499 1501 1502 1504 1506 1508 1509 1511 1512 1513 1515 1516 1517 1518 1520 1520 1521 1521 1522 1524 1526 1528 1529 1531 1533 1534 1535 1536 1537 1537 1538 1538 1539 1539 1540 1540 1539 1538 1537 1537 1536
1438 1441 1443 1445 1447 1448 1450 1451 1453 1454 1456 1457 1459 1460 1461 1463 1465 1466 1468 1470 1472 1474 1476 1478 1480 1482 1483 1485 1486 1487 1488 1489 1489 1490 1490 1490 1491 1491 1491 1492 1492 1493 1494 1495 1497 1498 1500 1502 1503 1505 1507 1508 1510 1511 1513 1514 1515 1517 1518 1518 1518 1519 1520 1521 1523 1525 1527 1528 1530 1531 1532 1533 1534 1535 1535 1535 1536 1537 1537 1537 1537 1536 1535 1534 1533
1439 1442 1444 1445 1446 1447 1449 1450 1452 1453 1455 1456 1458 1459 1461 1462 1464 1466 1467 1469 1471 1473 1475 1477 1478 1480 1482 1483 1484 1485 1486 1487 1487 1488 1488 1489 1489 1489 1490 1490 1491 1492 1493 1494 1495 1496 1497 1498 1500 1502 1504 1506 1508 1509 1510 1512 1513 1514 1515 1516 1516 1517 1518 1519 1521 1523 1524 1525 1527 1528 1529 1530 1531 1531 1532 1533 1533 1534 1535 1534 1534 1533 1532 1532 1531
1439 1442 1444 1445 1446 1447 1449 1450 1451 1453 1454 1455 1457 1458 1459 1461 1463 1464 1466 1468 1470 1471 1473 1475 1477 1479 1480 1482 1483 1483 1484 1485 1486 1486 1487 1487 1488 1488 1489 1489 1490 1491 1491 1492 1493 1494 1494 1495 1497 1499 1501 1503 1505 1507 1508 1509 1511 1512 1513 1513 1514 1515 1516 1517 1519 1520 1521 1522 1524 1525 1526 1526 1527 1528 1529 1530 1531 1531 1531 1531 1531 1530 1529 1529 1528
1439 1442 1443 1445 1446 1447 1449 1450 1452 1453 1454 1455 1456 1457 1458 1460 1461 1463 1465 1466 1468 1470 1472 1474 1476 1477 1479 1480 1481 1482 1483 1483 1484 1484 1485 1485 1486 1486 1487 1488 1488 1489 1490 1491 1491 1492 1492 1493 1494 1496 1498 1501 1502 1504 1506 1507 1508 1509 1510 1511 1512 1513 1514 1515 1516 1517 1519 1519 1520 1521 1522 1523 1524 1525 1526 1527 1528 1528 1528 1528 1528 1527 1526 1526 1525
1440 1441 1443 1445 1446 1448 1449 1450 1451 1452 1453 1455 1455 1457 1458 1459 1461 1462 1464 1466 1467 1469 1471 1472 1474 1476 1477 1479 1479 1480 1481 1481 1482 1482 1482 1483 1483 1484 1485 1486 1487 1487 1488 1489 1490 1490 1491 1492 1493 1494 1496 1498 1500 1501 1503 1504 1506 1507 1508 1508 1509 1510 1511 1512 1514 1515 1516 1516 1517 1518 1519 1520 1521 1522 1523 1523 1524 1525 1525 1525 1525 1524 1523 1523 1522
1440 1442 1443 1445 1446 1448 1449 1450 1451 1452 1453 1454 1455 1456 1458 1459 1460 1462 1464 1465 1466 1467 1469 1470 1472 1474 1475 1477 1478 1478 1479 1479 1480 1480 1480 1480 1481 1481 1482 1483 1484 1485 1486 1487 1488 1489 1490 1490 1491 1492 1494 1495 1497 1498 1500 1501 1503 1504 1505 1506 1506 1507 1508 1509 1511 1512 1513 1514 1515 1516 1516 1517 1518 1518 1519 1520 1521 1522 1522 1522 1522 1521 1520 1519 1518
1440 1442 1443 1444 1446 1447 1448 1449 1450 1451 1452 1453 1454 1456 1457 1459 1460 1461 1462 1463 1465 1466 1467 1469 1471 1472 1474 1475 1476 1477 1477 1478 1478 1478 1478 1478 1479 1479 1480 1481 1482 1483 1484 1485 1486 1487 1488 1489 1490 1490 1491 1492 1494 1495 1496 1498 1499 1500 1501 1502 1503 1504 1505 1507 1508 1509 1510 1511 1513 1513 1514 1515 1515 1516 1517 1518 1519 1520 1519 1519 1518 1518 1517 1516 1515
1440 1441 1443 1444 1445 1446 1447 1448 1449 1450 1451 1452 1453 1455 1456 1457 1459 1460 1461 1462 1463 1464 1466 1468 1470 1471 1472 1473 1474 1475 1476 1476 1476 1476 1476 1477 1477 1477 1478 1479 1480 1481 1482 1483 1484 1485 1486 1487 1488 1488 1489 1490 1491 1492 1493 1494 1496 1497 1498 1499 1500 1501 1502 1504 1505 1507 1508 1509 1510 1511 1511 1512 1513 1514 1515 1516 1517 1516 1516 1516 1515 1515 1514 1513 1512
1440 1441 1442 1443 1444 1445 1446 1447 1448 1449 1450 1451 1452 1453 1455 1456 1457 1458 1459 1461 1462 1463 1465 1467 1468 1470 1471 1472 1473 1474 1474 1474 1474 1475 1475 1475 1475 1476 1477 1477 1478 1479 1480 1481 1482 1483 1484 1485 1486 1486 1487 1488 1489 1490 1491 1492 1493 1494 1495 1496 1497 1498 1500 1502 1503 1505 1506 1507 1508 1508 1509 1510 1511 1511 1512 1513 1513 1513 1513 1513 1513 1512 1511 1510 1509
1439 1440 1441 1442 1443 1444 1445 1446 1447 1448 1449 1450 1451 1452 1453 1454 1455 1456 1458 1459 1461 1462 1464 1465 1467 1468 1469 1470 1471 1472 1472 1472 1473 1473 1473 1474 1474 1475 1475 1476 1476 1477 1478 1479 1480 1481 1482 1483 1484 1485 1486 1487 1487 1488 1489 1490 1491 1492 1493 1494 1495 1496 1498 1500 1501 1502 1503 1504 1505 1506 1507 1508 1509 1509 1509 1510 1511 1511 1511 1511 1510 1509 1508 1507 1506
1438 1439 1440 1441 1442 1443 1444 1445 1446 1447 1448 1449 1450 1451 1452 1453 1454 1455 1456 1457 1459 1461 1462 1463 1465 1466 1467 1468 1469 1470 1470 1471 1471 1471 1472 1472 1473 1473 1474 1474 1475 1476 1477 1477 1478 1479 1480 1481 1482 1483 1483 1484 1485 1486 1487 1488 1489 1490 1491 1492 1493 1495 1496 1498 1499 1500 1501 1502 1503 1503 1504 1506 1507 1507 1507 1508 1509 1509 1509 1508 1507 1506 1505 1504 1503
1438 1438 1439 1440 1441 1442 1443 1444 1445 1446 1447 1448 1448 1449 1450 1451 1452 1453 1455 1456 1458 1459 1461 1462 1463 1464 1465 1466 1467 1467 1468 1468 1469 1470 1471 1471 1472 1472 1473 1473 1474 1474 1475 1476 1476 1477 1478 1479 1480 1481 1482 1482 1483 1484 1485 1485 1486 1488 1489 1490 1492 1493 1495 1496 1497 1498 1499 1499 1500 1501 1503 1504 1504 1505 1506 1506 1507 1506 1506 1505 1504 1503 1502 1502 1501
1438 1438 1439 1440 1440 1441 1442 1443 1444 1444 1445 1446 1447 1448 1449 1450 1451 1452 1454 1455 1456 1458 1459 1460 1461 1462 1463 1464 1465 1465 1466 1466 1467 1468 1469 1470 1471 1471 1471 1472 1472 1473 1473 1474 1474 1475 1476 1477 1478 1479 1480 1481 1481 1482 1483 1484 1485 1486 1488 1489 1490 1491 1492 1493 1495 1496 1496 1497 1498 1500 1501 1502 1502 1503 1504 1504 1504 1503 1502 1501 1500 1500 1500 1499 1498
1437 1438 1438 1439 1439 1440 1441 1441 1442 1443 1444 1445 1446 1447 1448 1449 1450 1451 1452 1454 1455 1456 1458 1459 1459 1460 1461 1462 1463 1464 1464 1465 1466 1467 1468 1469 1470 1470 1470 1471 1471 1471 1472 1472 1472 1473 1474 1475 1476 1477 1478 1479 1480 1481 1482 1483 1484 1485 1486 1487 1488 1490 1491 1492 1493 1494 1495 1496 1498 1499 1499 1500 1501 1501 1501 1501 1501 1500 1499 1498 1498 1497 1497 1496 1495
1437 1437 1438 1438 1438 1439 1440 1440 1441 1442 1443 1444 1445 1446 1447 1448 1449 1450 1451 1452 1454 1455 1456 1457 1457 1458 1459 1460 1461 1462 1463 1464 1465 1466 1467 1468 1468 1469 1469 1469 1470 1470 1470 1471 1471 1472 1473 1474 1474 1475 1476 1478 1479 1480 1481 1482 1483 1484 1485 1486 1487 1488 1490 1491 1492 1493 1495 1496 1496 1497 1498 1498 1499 1499 1498 1498 1497 1497 1496 1496 1495 1495 1494 1493 1492